WESTFORD NEEDLES, 629

Orbit data source: Space-Track

WESTFORD NEEDLES, 629 is space debris in LEO originally from a launch on Thu, 09 May 1963 UTC via an ATLAS AGENA B launch vehicle from the Air Force Western Test Range (AFWTR). Debris objects in space refer to the collection of defunct objects orbiting the Earth. Examples of debris include non-operational satellites, rocket bodies, and fragments generated from explosions, collisions, or faulty payload assembly.

Loading next visibility...
Identifier
629, 1963-014G
Orbit
LEO
Country
Flag of USUS
Related business
Manufacturer
MIT-LL
Mission
Spacecraft
Bus & Motor
Unknown
Mass
8 kg wet, 8 kg dry
Launch date (UTC)
1963-05-09 (62 years ago)
Launch vehicle
ATLAS AGENA B
Launch site
Air Force Western Test Range (AFWTR)
Object type
Payload
Rocket body
Debris
Shape & HBR
Unknown shape, 1.1 m
Radar Cross Section
Large (>1 m²)

Expand to show TLE details & history
Last TLE update: 19 hours ago

TLE from 19 hours ago
0 WESTFORD NEEDLES
1 00629U 63014G   25300.75077085 -.00000002  00000-0 -22987-2 0  9994
2 00629  87.3472 213.3739 0055896 239.4626 120.0704  8.65565556974086
Epoch: 2025-10-27T18:01Z
TLE epoch observation values (Epoch: 2025-10-27T18:01:06.601Z)
Latitude
0.00001°
Longitude
-93.25173°
Altitude
3,672.369 km
Speed
6.289 km/s
True Right ascension
14h 13m 29s
True Declination
0° 00' 00"
Sunlit
Object was in daylight at epoch
Visualization orbit readout
Latitude
Unknown
Longitude
Unknown
Altitude
Unknown
Speed
Unknown
Apparent Right ascension
Unknown
Apparent Declination
Unknown
Sunlit
N/A
Visualization observer readout
Local Sidereal Time
08:48:49
Azimuth
Unknown
Elevation
Unknown
Doppler factor
Unknown
Orbital elements
Apogee altitude
3,695.7 km
Perigee altitude
3,583.709 km
Semi-major axis
10,017.842 km
Eccentricity
0.00559
Inclination
87.3472°
RAAN
213.3739°
Arg. of periapsis
239.4626°
True anomaly
120.62277°
Mean anomaly
120.0704°
Eccentric anomaly
120.34678°
Mean motion
2.16462 °/min
Orbital period
166.31 mins
BSTAR
-0.0022987
Loading maneuver chart data...
Computing Atmospheric mass density...

Documentation

Showing up to 5 results
|